Volver al catálogo

STARLINK-34440

ActivoComunicacionesVLEO
NORAD 64614·PAYLOAD·🇺🇸 United States

Lanzado Jun 25, 2025 desde Cape Canaveral Space Force Station

Loading…

Próximos Pases (próximas 24 horas)

TLE

ActualizadoSource: CelesTrak SupGP

Época: Sep 14, 2026, 20:58 UTC

1 64614C 25137W   26257.87409722 -.00052541  00000+0 -15506-2 0  2574
2 64614  53.1569 174.0230 0001245  82.3079 315.9944 15.34452606    12

Sigue STARLINK-34440 en tiempo real con AllMySat

Download on the App Store